Weather History for KGEV - December, 2013

Change the Weather History Date:

Sunday, December 29, 2013

  Actual Average Record
Temperature  
Mean Temperature 40 °F -  
Max Temperature 45 °F 46 °F 68 °F (1984)
Min Temperature 34 °F 23 °F 8 °F (1978)
Degree Days  
Heating Degree Days 26    
Moisture  
Dew Point 35 °F    
Average Humidity 86    
Maximum Humidity 97    
Minimum Humidity 70    
Precipitation  
Precipitation 0.17 in - - ()
Sea Level Pressure  
Sea Level Pressure 29.85 in    
Wind  
Wind Speed 7 mph (WNW)    
Max Wind Speed 32 mph    
Max Gust Speed 45 mph    
Visibility 7 miles    
Events Fog , Rain    
Averages and records for this station are not official NWS values.
T = Trace of Precipitation, MM = Missing Value Source: NWS Daily Summary

Daily Weather History Graph

Daily Weather History Graph

Search for Another Location

Airport or City:

Trip Planner

Search our weather history database for the weather conditions in past years. The results will help you decide how hot, cold, wet, or windy it might be!

Date:

Astronomy

Dec. 29, 2013 Rise Set
Actual Time 7:36 AM EST 5:19 PM EST
Civil Twilight 7:08 AM EST 5:47 PM EST
Nautical Twilight 6:35 AM EST 6:20 PM EST
Astronomical Twilight 6:04 AM EST 6:51 PM EST
Moon 4:21 AM EST (12/29) 2:54 PM EST (12/29)
Length of Visible Light 10h 39m
Length of Day
9h 42m
Waning Crescent, 11% of the Moon is Illuminated
Dec 29
Waning Crescent
Jan 1
New
Jan 7
First Quarter
Jan 15
Full
Jan 24
Last Quarter

Hourly Weather History & Observations

Time (EST) Temp. Windchill Dew Point Humidity Pressure Visibility Wind Dir Wind Speed Gust Speed Precip Events Conditions
12:15 AM 37.4 °F - 36.0 °F 95% 30.09 in 1.5 mi Calm Calm - 0.01 in Rain Rain
12:35 AM 36.7 °F 34.1 °F 35.6 °F 96% 30.07 in 1.8 mi SE 3.5 mph - 0.01 in Rain Light Rain
12:55 AM 36.5 °F - 35.4 °F 96% 30.05 in 4.0 mi Calm Calm - 0.01 in Rain Rain
1:15 AM 36.5 °F - 35.2 °F 95% 30.04 in 4.0 mi Calm Calm - N/A   Drizzle
1:35 AM 36.5 °F - 35.1 °F 95% 30.04 in 10.0 mi Calm Calm - N/A Rain Rain
1:55 AM 36.1 °F - 34.5 °F 94% 30.01 in 5.0 mi Calm Calm - N/A Rain Light Rain
2:15 AM 36.0 °F - 34.7 °F 95% 29.99 in 10.0 mi Calm Calm - N/A Rain Light Rain
2:35 AM 35.8 °F - 34.3 °F 94% 29.98 in 5.0 mi Calm Calm - N/A Rain Rain
2:55 AM 35.6 °F - 34.2 °F 94% 29.97 in 3.0 mi Calm Calm - N/A Rain Light Rain
3:15 AM 35.6 °F - 34.2 °F 94% 29.96 in 1.8 mi Calm Calm - N/A Rain Rain
3:35 AM 35.2 °F - 34.0 °F 95% 29.94 in 0.5 mi Calm Calm - 0.01 in Rain Light Rain
3:55 AM 35.1 °F - 34.0 °F 96% 29.93 in 1.0 mi Calm Calm - 0.01 in Rain Heavy Rain
4:15 AM 34.7 °F 30.6 °F 33.8 °F 97% 29.91 in 1.5 mi SSE 4.6 mph - N/A   Heavy Drizzle
4:35 AM 34.5 °F 31.6 °F 33.4 °F 96% 29.90 in 1.0 mi SSE 3.5 mph - N/A   Heavy Drizzle
4:55 AM 34.3 °F - 33.3 °F 96% 29.88 in 0.5 mi Calm Calm - N/A Rain Heavy Rain
5:15 AM 34.2 °F - 33.3 °F 97% 29.86 in 0.5 mi Calm Calm - N/A   Heavy Drizzle
5:35 AM 34.2 °F - 33.3 °F 97% 29.85 in 0.5 mi Calm Calm - 0.01 in Rain Heavy Rain
5:55 AM 34.2 °F - 33.1 °F 96% 29.84 in 1.5 mi Calm Calm - 0.02 in Rain Light Rain
6:15 AM 34.7 °F - 33.8 °F 97% 29.82 in 4.0 mi Calm Calm - N/A Rain Rain
6:35 AM 34.9 °F - 34.0 °F 97% 29.82 in 1.2 mi Calm Calm - 0.03 in Rain Rain
6:55 AM 34.9 °F 32.0 °F 34.0 °F 97% 29.81 in 0.5 mi SE 3.5 mph - 0.10 in   Overcast
7:15 AM 34.9 °F - 34.0 °F 97% 29.81 in 0.5 mi Calm Calm - 0.02 in Rain Rain
7:35 AM 35.1 °F 31.0 °F 34.2 °F 97% 29.81 in 0.5 mi NW 4.6 mph - 0.02 in Rain Light Rain
7:55 AM 36.3 °F - 35.4 °F 97% 29.81 in 1.8 mi Calm Calm - 0.03 in Rain Rain
8:15 AM 37.4 °F - 36.3 °F 96% 29.80 in 1.2 mi Calm Calm - N/A   Heavy Drizzle
8:35 AM 36.3 °F 32.5 °F 35.4 °F 97% 29.80 in 0.2 mi North 4.6 mph - N/A   Heavy Drizzle
8:55 AM 37.6 °F - 36.5 °F 96% 29.79 in 0.5 mi Calm Calm - N/A Fog Fog
9:35 AM 39.4 °F 37.2 °F 38.3 °F 96% 29.77 in 0.2 mi NNW 3.5 mph - N/A Fog Fog
9:55 AM 41.4 °F 34.7 °F 40.1 °F 95% 29.77 in 2.5 mi WNW 11.5 mph 16.1 mph N/A   Overcast
10:15 AM 43.3 °F 38.1 °F 42.3 °F 96% 29.77 in 10.0 mi WNW 9.2 mph 16.1 mph N/A   Overcast
10:35 AM 45.5 °F 38.9 °F 44.1 °F 95% 29.75 in 10.0 mi WNW 15.0 mph 25.3 mph N/A   Overcast
10:55 AM 45.1 °F 39.9 °F 41.5 °F 87% 29.77 in 10.0 mi West 10.4 mph 16.1 mph N/A   Overcast
11:15 AM 45.7 °F 38.3 °F 41.2 °F 84% 29.77 in 10.0 mi West 18.4 mph 31.1 mph N/A   Overcast
11:35 AM 45.7 °F 39.1 °F 40.3 °F 81% 29.76 in 10.0 mi West 15.0 mph - N/A   Overcast
11:55 AM 44.6 °F 38.1 °F 39.6 °F 82% 29.76 in 10.0 mi West 13.8 mph 34.5 mph N/A   Overcast
12:15 PM 44.2 °F 35.2 °F 38.7 °F 81% 29.74 in 10.0 mi WNW 24.2 mph 35.7 mph N/A   Overcast
12:35 PM 44.1 °F 35.2 °F 38.3 °F 80% 29.73 in 10.0 mi West 23.0 mph 31.1 mph N/A   Overcast
12:55 PM 44.6 °F 37.2 °F 38.1 °F 78% 29.74 in 10.0 mi WNW 17.3 mph 29.9 mph N/A   Overcast
1:15 PM 44.6 °F 38.1 °F 37.8 °F 77% 29.75 in 10.0 mi WNW 13.8 mph 23.0 mph N/A   Overcast
1:35 PM 43.5 °F 37.1 °F 37.6 °F 80% 29.75 in 10.0 mi NW 12.7 mph 21.9 mph N/A   Overcast
1:55 PM 42.8 °F 36.2 °F 37.4 °F 81% 29.76 in 10.0 mi West 12.7 mph 19.6 mph N/A   Overcast
2:15 PM 41.9 °F 32.1 °F 36.7 °F 82% 29.75 in 10.0 mi West 24.2 mph 34.5 mph N/A   Overcast
2:35 PM 41.0 °F 31.9 °F 36.7 °F 85% 29.77 in 10.0 mi West 19.6 mph 44.9 mph N/A   Overcast
2:55 PM 40.5 °F 30.4 °F 36.7 °F 86% 29.76 in 7.0 mi West 23.0 mph 38.0 mph N/A   Overcast
3:15 PM 41.0 °F 33.1 °F 36.5 °F 84% 29.77 in 10.0 mi WNW 15.0 mph 25.3 mph N/A   Overcast
3:35 PM 41.0 °F 32.2 °F 36.0 °F 82% 29.78 in 10.0 mi West 18.4 mph 31.1 mph N/A   Overcast
3:55 PM 41.0 °F 29.8 °F 35.1 °F 79% 29.77 in 10.0 mi West 29.9 mph 43.7 mph N/A   Overcast
4:15 PM 41.0 °F 30.7 °F 34.9 °F 79% 29.78 in 10.0 mi West 25.3 mph 33.4 mph N/A   Overcast
4:35 PM 40.6 °F 29.8 °F 34.7 °F 79% 29.78 in 10.0 mi West 27.6 mph 42.6 mph N/A   Overcast
4:55 PM 40.3 °F 28.5 °F 34.9 °F 81% 29.78 in 10.0 mi West 32.2 mph 38.0 mph N/A   Overcast
5:15 PM 40.3 °F 28.9 °F 34.7 °F 80% 29.79 in 10.0 mi West 29.9 mph 41.4 mph N/A   Mostly Cloudy
5:35 PM 40.5 °F 29.7 °F 34.7 °F 80% 29.80 in 10.0 mi WNW 26.5 mph 38.0 mph N/A   Scattered Clouds
5:55 PM 40.5 °F 30.7 °F 34.7 °F 80% 29.81 in 10.0 mi WNW 21.9 mph 39.1 mph N/A   Mostly Cloudy
6:15 PM 39.6 °F 30.0 °F 35.6 °F 86% 29.83 in 7.0 mi WNW 19.6 mph 33.4 mph N/A   Overcast
6:35 PM 40.1 °F 34.7 °F 34.7 °F 81% 29.85 in 10.0 mi WNW 8.1 mph 38.0 mph N/A   Overcast
6:55 PM 40.1 °F 31.0 °F 34.2 °F 79% 29.84 in 10.0 mi NW 18.4 mph 27.6 mph N/A   Overcast
7:15 PM 40.3 °F 31.9 °F 33.3 °F 76% 29.85 in 10.0 mi West 16.1 mph 27.6 mph N/A   Overcast
7:35 PM 40.1 °F 32.0 °F 32.4 °F 74% 29.86 in 10.0 mi WNW 15.0 mph 25.3 mph N/A   Overcast
7:55 PM 39.9 °F 30.2 °F 32.0 °F 73% 29.86 in 10.0 mi WNW 20.7 mph 32.2 mph N/A   Overcast
8:15 PM 40.1 °F 36.1 °F 32.0 °F 73% 29.87 in 10.0 mi NW 5.8 mph 23.0 mph N/A   Overcast
8:35 PM 39.9 °F 35.8 °F 32.0 °F 73% 29.88 in 10.0 mi North 5.8 mph - N/A   Overcast
8:55 PM 40.1 °F - 32.0 °F 73% 29.89 in 10.0 mi Calm Calm - N/A   Overcast
9:15 PM 39.9 °F 32.5 °F 31.3 °F 71% 29.90 in 10.0 mi WNW 12.7 mph 24.2 mph N/A   Overcast
9:35 PM 39.4 °F 33.8 °F 30.6 °F 71% 29.91 in 10.0 mi West 8.1 mph 23.0 mph N/A   Overcast
9:55 PM 38.7 °F 36.3 °F 30.2 °F 72% 29.91 in 10.0 mi South 3.5 mph - N/A   Overcast
10:15 PM 38.5 °F 32.1 °F 29.3 °F 70% 29.90 in 10.0 mi WNW 9.2 mph 27.6 mph N/A   Mostly Cloudy
10:35 PM 37.9 °F 29.2 °F 28.9 °F 70% 29.89 in 10.0 mi NNW 15.0 mph 28.8 mph N/A   Scattered Clouds
10:55 PM 37.8 °F 29.8 °F 29.1 °F 71% 29.90 in 10.0 mi NW 12.7 mph 31.1 mph N/A   Scattered Clouds
11:15 PM 37.6 °F 31.6 °F 30.2 °F 75% 29.91 in 10.0 mi NNW 8.1 mph 35.7 mph N/A   Mostly Cloudy
11:35 PM 37.6 °F 30.0 °F 30.7 °F 76% 29.91 in 10.0 mi NW 11.5 mph 35.7 mph N/A   Overcast
11:55 PM 37.4 °F 28.2 °F 30.7 °F 77% 29.90 in 10.0 mi WNW 16.1 mph 29.9 mph N/A   Overcast